Location: *
(49.6619°S, 177.4603°W)
Time: 05:15:25
(UTC+00:00)

CZ-4C R/B - Pass Details

Date: 31 January 2023
Orbit: 561 x 1438 km, 63.4° (Epoch: 01 April)

Event Time Altitude Azimuth Distance (km) Brightness Sun altitude
Rises 09:14:34 0° 225° (SW) 3,746 7.6 -13.3°
Reaches altitude 10° 09:17:32 10° 219° (SW) 2,644 6.3 -13.6°
Maximum altitude 09:23:22 48° 144° (SE) 1,019 2.7 -14.2°
Enters shadow 09:26:59 17° 74° (ENE) 1,758 3.4 -14.6°
